Tillbaka till svenska Fidonet
English   Information   Debug  
FILM   0/18
FNEWS_PUBLISH   5034
FN_SYSOP   42247
FN_SYSOP_OLD1   71952
FTP_FIDO   0/2
FTSC_PUBLIC   0/13979
FUNNY   0/4886
GENEALOGY.EUR   0/71
GET_INFO   105
GOLDED   0/408
HAM   0/16786
HOLYSMOKE   0/6791
HOT_SITES   0/1
HTMLEDIT   0/71
HUB203   466
HUB_100   264
HUB_400   39
HUMOR   0/29
IC   0/2851
INTERNET   0/424
INTERUSER   0/3
IP_CONNECT   719
JAMNNTPD   0/233
JAMTLAND   0/47
KATTY_KORNER   0/41
LAN   0/16
LINUX-USER   0/19
LINUXHELP   0/1155
LINUX   0/22427
LINUX_BBS   0/957
mail   18.68
mail_fore_ok   249
MENSA   0/341
MODERATOR   0/102
MONTE   0/992
MOSCOW_OKLAHOMA   0/1245
MUFFIN   0/783
MUSIC   0/321
N203_STAT   938
N203_SYSCHAT   313
NET203   321
NET204   69
NET_DEV   0/10
NORD.ADMIN   0/101
NORD.CHAT   0/2572
NORD.FIDONET   189
NORD.HARDWARE   0/28
NORD.KULTUR   0/114
NORD.PROG   0/32
NORD.SOFTWARE   0/88
NORD.TEKNIK   0/58
NORD   0/453
OCCULT_CHAT   0/93
OS2BBS   0/787
OS2DOSBBS   0/580
OS2HW   0/42
OS2INET   0/37
OS2LAN   0/134
OS2PROG   0/36
OS2REXX   0/113
OS2USER-L   207
OS2   0/4835
OSDEBATE   0/18996
PASCAL   0/490
PERL   0/457
PHP   0/45
POINTS   0/405
POLITICS   0/29554
POL_INC   0/14731
PSION   103
R20_ADMIN   1133
R20_AMATORRADIO   0/2
R20_BEST_OF_FIDONET   16
R20_CHAT   0/897
R20_DEPP   0/3
R20_DEV   400
R20_ECHO2   1934
R20_ECHOPRES   0/35
R20_ESTAT   0/719
R20_FIDONETPROG...
...RAM.MYPOINT
  0/2
R20_FIDONETPROGRAM   0/22
R20_FIDONET   0/248
R20_FILEFIND   0/24
R20_FILEFOUND   0/22
R20_HIFI   0/3
R20_INFO2   3827
R20_INTERNET   0/12940
R20_INTRESSE   0/60
R20_INTR_KOM   0/99
R20_KANDIDAT.CHAT   42
R20_KANDIDAT   28
R20_KOM_DEV   112
R20_KONTROLL   0/13360
R20_KORSET   0/18
R20_LOKALTRAFIK   0/24
R20_MODERATOR   0/1852
R20_NC   76
R20_NET200   245
R20_NETWORK.OTH...
...ERNETS
  0/13
R20_OPERATIVSYS...
...TEM.LINUX
  0/44
R20_PROGRAMVAROR   0/1
R20_REC2NEC   534
R20_SFOSM   0/341
R20_SF   0/108
R20_SPRAK.ENGLISH   0/1
R20_SQUISH   107
R20_TEST   2
R20_WORST_OF_FIDONET   20
RAR   0/9
RA_MULTI   106
RA_UTIL   0/162
REGCON.EUR   0/2072
REGCON   0/13
SCIENCE   0/1206
SF   0/239
SHAREWARE_SUPPORT   0/5146
SHAREWRE   0/14
SIMPSONS   0/169
STATS_OLD1   0/2539.065
STATS_OLD2   0/2530
STATS_OLD3   0/2395.095
STATS_OLD4   0/1692.25
SURVIVOR   0/495
SYSOPS_CORNER   0/3
SYSOP   0/84
TAGLINES   0/112
TEAMOS2   0/4530
TECH   0/2617
TEST.444   0/105
TRAPDOOR   0/19
TREK   0/755
TUB   0/290
UFO   0/40
UNIX   0/1316
USA_EURLINK   0/102
USR_MODEMS   0/1
VATICAN   0/2740
VIETNAM_VETS   0/14
VIRUS   0/378
VIRUS_INFO   0/201
VISUAL_BASIC   0/473
WHITEHOUSE   0/5187
WIN2000   0/101
WIN32   0/30
WIN95   0/4291
WIN95_OLD1   0/70272
WINDOWS   0/1517
WWB_SYSOP   0/419
WWB_TECH   0/810
ZCC-PUBLIC   0/1
ZEC   4

 
4DOS   0/134
ABORTION   0/7
ALASKA_CHAT   0/506
ALLFIX_FILE   0/1313
ALLFIX_FILE_OLD1   0/7997
ALT_DOS   0/152
AMATEUR_RADIO   0/1039
AMIGASALE   0/14
AMIGA   0/331
AMIGA_INT   0/1
AMIGA_PROG   0/20
AMIGA_SYSOP   0/26
ANIME   0/15
ARGUS   0/924
ASCII_ART   0/340
ASIAN_LINK   0/651
ASTRONOMY   0/417
AUDIO   0/92
AUTOMOBILE_RACING   0/105
BABYLON5   0/17862
BAG   135
BATPOWER   0/361
BBBS.ENGLISH   0/382
BBSLAW   0/109
BBS_ADS   0/5290
BBS_INTERNET   0/507
BIBLE   0/3563
BINKD   0/1119
BINKLEY   0/215
BLUEWAVE   0/2173
CABLE_MODEMS   0/25
CBM   0/46
CDRECORD   0/66
CDROM   0/20
CLASSIC_COMPUTER   0/378
COMICS   0/15
CONSPRCY   0/899
COOKING   42383
COOKING_OLD1   0/24719
COOKING_OLD2   0/40862
COOKING_OLD3   0/37489
COOKING_OLD4   0/35496
COOKING_OLD5   9370
C_ECHO   0/189
C_PLUSPLUS   0/31
DIRTY_DOZEN   0/201
DOORGAMES   0/2388
DOS_INTERNET   0/196
duplikat   6102
ECHOLIST   0/18295
EC_SUPPORT   0/318
ELECTRONICS   0/359
ELEKTRONIK.GER   1534
ENET.LINGUISTIC   0/13
ENET.POLITICS   0/4
ENET.SOFT   0/11701
ENET.SYSOP   34412
ENET.TALKS   0/32
ENGLISH_TUTOR   0/2000
EVOLUTION   0/1335
FDECHO   0/217
FDN_ANNOUNCE   0/7068
FIDONEWS   25230
FIDONEWS_OLD1   0/49742
FIDONEWS_OLD2   0/35949
FIDONEWS_OLD3   0/30874
FIDONEWS_OLD4   0/37224
FIDO_SYSOP   12977
FIDO_UTIL   0/180
FILEFIND   0/209
FILEGATE   0/212
Möte HAM, 16786 texter
 lista första sista föregående nästa
Text 2370, 815 rader
Skriven 2008-06-19 23:30:21 av Amsat List (1:323/120.0)
Ärende: [keps]  orb08171.amsa
=============================
[keps]  orb08171.amsa

Return-Path: <keps-bounces@amsat.org>
X-Rcpt: craig.healy@chowda.com
X-UIDL: 1213931902.27716

SB KEPS @ AMSAT  $ORB08171.O
Orbital Elements  08171.OSCAR

HR AMSAT ORBITAL ELEMENTS FOR OSCAR SATELLITES
FROM WA5QGD FORT WORTH,TX June 19, 2008
Send Subscribe/unsubscribe to KEPS at 
http://www.amsat.org/mailman/listinfo/keps
BID: ORB08171.O
TO ALL RADIO AMATEURS BT

Satellite: AO-07
Catalog number: 07530
Epoch time:      08170.65028065
Element set:    0206
Inclination:      101.4644 deg
RA of node:       202.0976 deg
Eccentricity:    0.0011647
Arg of perigee:   259.7821 deg
Mean anomaly:     100.1946 deg
Mean motion:   12.53573711 rev/day
Decay rate:       -2.7e-07 rev/day^2
Epoch rev:           53716
Checksum:              276

Satellite: AO-10
Catalog number: 14129
Epoch time:      08170.20164984
Element set:     519
Inclination:      025.9698 deg
RA of node:       209.8220 deg
Eccentricity:    0.5983322
Arg of perigee:   133.0020 deg
Mean anomaly:     295.8676 deg
Mean motion:   02.05869993 rev/day
Decay rate:       -5.3e-07 rev/day^2
Epoch rev:           18812
Checksum:              320

Satellite: UO-11
Catalog number: 14781
Epoch time:      08170.74101097
Element set:     698
Inclination:      098.1539 deg
RA of node:       204.7982 deg
Eccentricity:    0.0010167
Arg of perigee:   070.2226 deg
Mean anomaly:     290.0091 deg
Mean motion:   14.79649753 rev/day
Decay rate:       3.40e-06 rev/day^2
Epoch rev:           30408
Checksum:              300

Satellite: RS-15
Catalog number: 23439
Epoch time:      08170.96499230
Element set:    0151
Inclination:      064.8140 deg
RA of node:       132.1715 deg
Eccentricity:    0.0147402
Arg of perigee:   122.5002 deg
Mean anomaly:     239.0262 deg
Mean motion:   11.27552246 rev/day
Decay rate:       -3.9e-07 rev/day^2
Epoch rev:           55516
Checksum:              270

Satellite: FO-29
Catalog number: 24278
Epoch time:      08170.82235687
Element set:    0808
Inclination:      098.5870 deg
RA of node:       086.8990 deg
Eccentricity:    0.0350317
Arg of perigee:   211.2188 deg
Mean anomaly:     146.7718 deg
Mean motion:   13.52937899 rev/day
Decay rate:       -1.9e-07 rev/day^2
Epoch rev:           58461
Checksum:              362

Satellite: SO-33
Catalog number: 25509
Epoch time:      08171.63725146
Element set:     222
Inclination:      031.4322 deg
RA of node:       302.4948 deg
Eccentricity:    0.0354263
Arg of perigee:   048.6392 deg
Mean anomaly:     314.4145 deg
Mean motion:   14.28216504 rev/day
Decay rate:       1.08e-06 rev/day^2
Epoch rev:           50396
Checksum:              281

Satellite: AO-40
Catalog number: 26609
Epoch time:      08171.19788136
Element set:      80
Inclination:      007.5896 deg
RA of node:       076.8086 deg
Eccentricity:    0.7915974
Arg of perigee:   092.8833 deg
Mean anomaly:     348.8257 deg
Mean motion:   01.25584887 rev/day
Decay rate:      -1.01e-06 rev/day^2
Epoch rev:            3506
Checksum:              352

Satellite: VO-52
Catalog number: 28650
Epoch time:      08170.82469489
Element set:     959
Inclination:      097.7899 deg
RA of node:       237.3909 deg
Eccentricity:    0.0028165
Arg of perigee:   133.8628 deg
Mean anomaly:     226.4931 deg
Mean motion:   14.81475284 rev/day
Decay rate:       3.83e-06 rev/day^2
Epoch rev:           16884
Checksum:              374

Satellite: PO-63
Catalog number: 29712
Epoch time:      08171.72532007
Element set:     547
Inclination:      097.8749 deg
RA of node:       229.8644 deg
Eccentricity:    0.0014840
Arg of perigee:   018.3634 deg
Mean anomaly:     341.8114 deg
Mean motion:   14.80186465 rev/day
Decay rate:       4.93e-06 rev/day^2
Epoch rev:            7784
Checksum:              327

/EX
SB KEPS @ AMSAT  $ORB08171.D
Orbital Elements  08171.MICROS

HR AMSAT ORBITAL ELEMENTS FOR THE MICROSATS
FROM WA5QGD FORT WORTH,TX June 19, 2008
Send Subscribe/unsubscribe to KEPS at 
http://www.amsat.org/mailman/listinfo/keps
BID: ORB08171.D
TO ALL RADIO AMATEURS BT

Satellite: AO-16
Catalog number: 20439
Epoch time:      08171.58661013
Element set:     348
Inclination:      098.2296 deg
RA of node:       151.5261 deg
Eccentricity:    0.0010941
Arg of perigee:   164.6107 deg
Mean anomaly:     195.5417 deg
Mean motion:   14.31796309 rev/day
Decay rate:        1.2e-07 rev/day^2
Epoch rev:           96126
Checksum:              297

Satellite: LO-19
Catalog number: 20442
Epoch time:      08170.65532559
Element set:     275
Inclination:      098.1996 deg
RA of node:       159.1742 deg
Eccentricity:    0.0012057
Arg of perigee:   165.7696 deg
Mean anomaly:     194.3835 deg
Mean motion:   14.32034595 rev/day
Decay rate:        4.0e-07 rev/day^2
Epoch rev:           96128
Checksum:              328

Satellite: AO-27
Catalog number: 22825
Epoch time:      08170.60084391
Element set:    0997
Inclination:      098.3842 deg
RA of node:       130.5693 deg
Eccentricity:    0.0007564
Arg of perigee:   255.3075 deg
Mean anomaly:     104.7266 deg
Mean motion:   14.29241144 rev/day
Decay rate:        7.0e-08 rev/day^2
Epoch rev:           76797
Checksum:              323

Satellite: IO-26
Catalog number: 22826
Epoch time:      08170.93462441
Element set:    0703
Inclination:      098.3761 deg
RA of node:       131.7991 deg
Eccentricity:    0.0008031
Arg of perigee:   251.9216 deg
Mean anomaly:     108.1111 deg
Mean motion:   14.29490142 rev/day
Decay rate:        4.0e-08 rev/day^2
Epoch rev:           76811
Checksum:              278

